Terminal Aerodrome Forecast
Issued by NWS Louisville, KY

Home | Current Version | Previous Version | Text Only | Print | Product List | Glossary On
Versions: 1 2 3 4 5 6 7 8 9 10 11 12 13 14 15 16 17 18 19
000
FTUS43 KLMK 260400 AAA
TAFBWG
TAF AMD
KBWG 260400Z 2604/2624 00000KT 3SM BR SKC
      TEMPO 2604/2608 1SM BR
     FM260800 00000KT 3SM BR SCT002
      TEMPO 2609/2613 1/2SM FG BKN002
     FM261430 VRB03KT P6SM SKC=

USA.gov is the U.S. government's official web portal to all federal, state and local government web resources and services.